When you browse on this site, cookies collect data to enhance your experience and personalize the content and advertising you see.
Visit our Privacy Policy to learn more. By continuing to use the site, you agree to this use of cookies and data.
  • Em Portugal
  • Lista de países
  • Para 7 dias
  • Temperatura da água
  • Mapa do tempo
  • Widgets de tempo
  • user-avatar
    Iniciar Sessão

    Previsão horária em Kerewan

    Hoje, 22 Fevereiro, Sábado

    Tempo Temperatura Precipitação Vento Pressão Humidade
    00:00 +25°C° 0 mm 3 m/s 756 mmHg 39%
    01:00 +24°C° 0 mm 3 m/s 755 mmHg 41%
    02:00 +22°C° 0 mm 3 m/s 755 mmHg 42%
    03:00 +22°C° 0 mm 3 m/s 755 mmHg 43%
    04:00 +23°C° 0 mm 2 m/s 755 mmHg 44%
    05:00 +21°C° 0 mm 2 m/s 755 mmHg 45%
    06:00 +23°C° 0 mm 2 m/s 756 mmHg 43%
    07:00 +24°C° 0 mm 3 m/s 757 mmHg 40%
    08:00 +25°C° 0 mm 3 m/s 757 mmHg 37%
    09:00 +29°C° 0 mm 3 m/s 757 mmHg 29%
    10:00 +34°C° 0 mm 4 m/s 757 mmHg 20%
    11:00 +38°C° 0 mm 4 m/s 757 mmHg 13%
    12:00 +40°C° 0 mm 4 m/s 756 mmHg 11%
    13:00 +42°C° 0 mm 4 m/s 755 mmHg 9%
    14:00 +43°C° 0 mm 3 m/s 755 mmHg 7%
    15:00 +42°C° 0 mm 4 m/s 754 mmHg 12%
    16:00 +40°C° 0 mm 4 m/s 754 mmHg 18%
    17:00 +37°C° 0 mm 5 m/s 754 mmHg 23%
    18:00 +35°C° 0 mm 5 m/s 754 mmHg 27%
    19:00 +33°C° 0 mm 5 m/s 755 mmHg 31%
    20:00 +30°C° 0 mm 5 m/s 756 mmHg 35%
    21:00 +29°C° 0 mm 4 m/s 756 mmHg 36%
    22:00 +27°C° 0 mm 3 m/s 756 mmHg 37%
    23:00 +26°C° 0 mm 3 m/s 756 mmHg 38%

    Amanhã, 23 Fevereiro, Domingo

    Tempo Temperatura Precipitação Vento Pressão Humidade
    00:00 +25°C° 0 mm 3 m/s 756 mmHg 39%
    01:00 +24°C° 0 mm 3 m/s 756 mmHg 41%
    02:00 +24°C° 0 mm 3 m/s 756 mmHg 42%
    03:00 +22°C° 0 mm 3 m/s 756 mmHg 44%
    04:00 +23°C° 0 mm 2 m/s 756 mmHg 46%
    05:00 +23°C° 0 mm 2 m/s 756 mmHg 48%
    06:00 +24°C° 0 mm 2 m/s 756 mmHg 44%
    07:00 +25°C° 0 mm 2 m/s 757 mmHg 41%
    08:00 +26°C° 0 mm 3 m/s 758 mmHg 38%
    09:00 +30°C° 0 mm 3 m/s 758 mmHg 30%
    10:00 +34°C° 0 mm 3 m/s 758 mmHg 22%
    11:00 +38°C° 0 mm 4 m/s 758 mmHg 13%
    12:00 +39°C° 0 mm 3 m/s 757 mmHg 11%
    13:00 +42°C° 0 mm 3 m/s 756 mmHg 10%
    14:00 +44°C° 0 mm 3 m/s 755 mmHg 8%
    15:00 +42°C° 0 mm 4 m/s 755 mmHg 14%
    16:00 +40°C° 0 mm 5 m/s 754 mmHg 19%
    17:00 +38°C° 0 mm 6 m/s 754 mmHg 25%
    18:00 +34°C° 0 mm 5 m/s 755 mmHg 32%
    19:00 +32°C° 0 mm 5 m/s 756 mmHg 38%
    20:00 +28°C° 0 mm 5 m/s 756 mmHg 45%
    21:00 +28°C° 0 mm 4 m/s 756 mmHg 43%
    22:00 +28°C° 0 mm 3 m/s 757 mmHg 41%
    23:00 +27°C° 0 mm 3 m/s 757 mmHg 39%

    Depois de amanhã, 24 Fevereiro, Segunda-feira

    Tempo Temperatura Precipitação Vento Pressão Humidade
    00:00 +27°C° 0 mm 2 m/s 757 mmHg 39%
    01:00 +27°C° 0 mm 2 m/s 757 mmHg 38%
    02:00 +26°C° 0 mm 2 m/s 757 mmHg 37%
    03:00 +27°C° 0 mm 4 m/s 756 mmHg 34%
    04:00 +28°C° 0 mm 5 m/s 756 mmHg 31%
    05:00 +29°C° 0 mm 7 m/s 756 mmHg 27%
    06:00 +30°C° 0 mm 6 m/s 756 mmHg 26%
    07:00 +32°C° 0 mm 5 m/s 757 mmHg 24%
    08:00 +33°C° 0 mm 4 m/s 757 mmHg 22%
    09:00 +35°C° 0 mm 4 m/s 757 mmHg 21%
    10:00 +38°C° 0 mm 4 m/s 757 mmHg 19%
    11:00 +41°C° 0 mm 4 m/s 757 mmHg 17%
    12:00 +42°C° 0 mm 5 m/s 756 mmHg 17%
    13:00 +44°C° 0 mm 6 m/s 755 mmHg 16%
    14:00 +45°C° 0 mm 7 m/s 754 mmHg 15%
    15:00 +44°C° 0 mm 7 m/s 754 mmHg 15%
    16:00 +43°C° 0 mm 7 m/s 754 mmHg 15%
    17:00 +43°C° 0 mm 7 m/s 754 mmHg 16%
    18:00 +40°C° 0 mm 7 m/s 754 mmHg 19%
    19:00 +38°C° 0 mm 6 m/s 755 mmHg 23%
    20:00 +34°C° 0 mm 6 m/s 755 mmHg 27%
    21:00 +34°C° 0 mm 6 m/s 755 mmHg 26%
    22:00 +34°C° 0 mm 6 m/s 755 mmHg 26%
    23:00 +34°C° 0 mm 5 m/s 755 mmHg 26%

    25 Fevereiro, Terça-feira

    Tempo Temperatura Precipitação Vento Pressão Humidade
    00:00 +33°C° 0 mm 5 m/s 755 mmHg 28%
    01:00 +33°C° 0 mm 5 m/s 755 mmHg 29%
    02:00 +32°C° 0 mm 5 m/s 755 mmHg 30%
    03:00 +30°C° 0 mm 4 m/s 755 mmHg 32%
    04:00 +29°C° 0 mm 4 m/s 755 mmHg 33%
    05:00 +29°C° 0 mm 3 m/s 754 mmHg 35%
    06:00 +29°C° 0 mm 4 m/s 755 mmHg 33%
    07:00 +30°C° 0 mm 4 m/s 755 mmHg 31%
    08:00 +30°C° 0 mm 4 m/s 756 mmHg 30%
    09:00 +35°C° 0 mm 5 m/s 755 mmHg 22%
    10:00 +40°C° 0 mm 7 m/s 755 mmHg 14%
    11:00 +45°C° 0 mm 8 m/s 755 mmHg 6%
    12:00 +46°C° 0 mm 7 m/s 754 mmHg 6%
    13:00 +47°C° 0 mm 6 m/s 753 mmHg 6%
    14:00 +48°C° 0 mm 6 m/s 752 mmHg 6%
    15:00 +48°C° 0 mm 5 m/s 752 mmHg 6%
    16:00 +47°C° 0 mm 4 m/s 752 mmHg 6%
    17:00 +47°C° 0 mm 4 m/s 752 mmHg 7%
    18:00 +42°C° 0 mm 3 m/s 752 mmHg 13%
    19:00 +37°C° 0 mm 3 m/s 753 mmHg 19%
    20:00 +33°C° 0 mm 3 m/s 754 mmHg 26%
    21:00 +30°C° 0 mm 2 m/s 754 mmHg 30%
    22:00 +29°C° 0 mm 2 m/s 754 mmHg 33%
    23:00 +27°C° 0 mm 2 m/s 755 mmHg 37%

    26 Fevereiro, Quarta-feira

    Tempo Temperatura Precipitação Vento Pressão Humidade
    00:00 +26°C° 0 mm 2 m/s 754 mmHg 41%
    01:00 +25°C° 0 mm 2 m/s 754 mmHg 45%
    02:00 +25°C° 0 mm 2 m/s 754 mmHg 50%
    03:00 +24°C° 0 mm 2 m/s 754 mmHg 52%
    04:00 +24°C° 0 mm 2 m/s 754 mmHg 55%
    05:00 +24°C° 0 mm 3 m/s 754 mmHg 58%
    06:00 +26°C° 0 mm 3 m/s 754 mmHg 50%
    07:00 +28°C° 0 mm 4 m/s 755 mmHg 42%
    08:00 +30°C° 0 mm 5 m/s 755 mmHg 34%
    09:00 +35°C° 0 mm 6 m/s 755 mmHg 26%
    10:00 +39°C° 0 mm 7 m/s 755 mmHg 19%
    11:00 +43°C° 0 mm 8 m/s 755 mmHg 11%
    12:00 +45°C° 0 mm 7 m/s 754 mmHg 10%
    13:00 +46°C° 0 mm 6 m/s 754 mmHg 9%
    14:00 +47°C° 0 mm 5 m/s 753 mmHg 9%
    15:00 +45°C° 0 mm 5 m/s 753 mmHg 14%
    16:00 +42°C° 0 mm 4 m/s 753 mmHg 19%
    17:00 +41°C° 0 mm 4 m/s 752 mmHg 24%
    18:00 +36°C° 0 mm 4 m/s 753 mmHg 37%
    19:00 +32°C° 0 mm 4 m/s 754 mmHg 51%
    20:00 +27°C° 0 mm 4 m/s 754 mmHg 65%
    21:00 +26°C° 0 mm 3 m/s 755 mmHg 69%
    22:00 +25°C° 0 mm 2 m/s 755 mmHg 74%
    23:00 +25°C° 0 mm 2 m/s 755 mmHg 78%

    27 Fevereiro, Quinta-feira

    Tempo Temperatura Precipitação Vento Pressão Humidade
    00:00 +24°C° 0 mm 2 m/s 755 mmHg 79%
    01:00 +24°C° 0 mm 2 m/s 755 mmHg 79%
    02:00 +24°C° 0 mm 2 m/s 755 mmHg 80%
    03:00 +23°C° 0 mm 1 m/s 755 mmHg 81%
    04:00 +23°C° 0 mm 1 m/s 755 mmHg 83%
    05:00 +23°C° 0 mm 1 m/s 755 mmHg 84%
    06:00 +24°C° 0 mm 1 m/s 756 mmHg 78%
    07:00 +26°C° 0 mm 1 m/s 756 mmHg 72%
    08:00 +27°C° 0 mm 1 m/s 757 mmHg 65%
    09:00 +31°C° 0 mm 1 m/s 757 mmHg 51%
    10:00 +35°C° 0 mm 2 m/s 757 mmHg 36%
    11:00 +39°C° 0 mm 2 m/s 757 mmHg 21%
    12:00 +40°C° 0 mm 2 m/s 756 mmHg 18%
    13:00 +42°C° 0 mm 2 m/s 755 mmHg 15%
    14:00 +44°C° 0 mm 3 m/s 754 mmHg 12%
    15:00 +43°C° 0 mm 3 m/s 754 mmHg 17%
    16:00 +40°C° 0 mm 3 m/s 754 mmHg 22%
    17:00 +38°C° 0 mm 3 m/s 753 mmHg 26%
    18:00 +35°C° 0 mm 3 m/s 754 mmHg 41%
    19:00 +30°C° 0 mm 4 m/s 754 mmHg 56%
    20:00 +26°C° 0 mm 4 m/s 755 mmHg 70%
    21:00 +26°C° 0 mm 3 m/s 755 mmHg 74%
    22:00 +25°C° 0 mm 3 m/s 756 mmHg 79%
    23:00 +24°C° 0 mm 3 m/s 756 mmHg 83%
    Mostrar mais